Weather History for 08306 - June, 2013

Change the Weather History Date:

Sunday, June 30, 2013

  Actual Average Record
Temperature  
Mean Temperature 70 °F -  
Max Temperature 81 °F 85 °F - ()
Min Temperature 59 °F 64 °F - ()
Cooling Degree Days 5    
Growing Degree Days 20 (Base 50)    
Moisture  
Dew Point 60 °F    
Average Humidity 65    
Maximum Humidity 88    
Minimum Humidity 35    
Precipitation  
Precipitation 0.00 in 0.01 in - ()
Sea Level Pressure  
Sea Level Pressure 30.15 in    
Wind  
Wind Speed 4 mph ()    
Max Wind Speed 18 mph    
Max Gust Speed -    
Visibility 6.8 miles    
Events      
T = Trace of Precipitation, MM = Missing Value Source: Averaged Metar Reports

Daily Weather History Graph

Daily Weather History Graph

Search for Another Location

Airport or City:

Trip Planner

Search our weather history database for the weather conditions in past years. The results will help you decide how hot, cold, wet, or windy it might be!

Date:

Astronomy

Jun. 30, 2013 Rise Set
Actual Time 6:24 AM CEST 9:20 PM CEST
Civil Twilight 5:52 AM CEST 9:52 PM CEST
Nautical Twilight 5:11 AM CEST 10:33 PM CEST
Astronomical Twilight 4:24 AM CEST 11:20 PM CEST
Moon 1:14 AM CEST (6/30) 2:20 PM CEST (6/30)
Length of Visible Light 16h 00m
Length of Day
14h 55m
Waning Gibbous, 48% of the Moon is Illuminated
Jun 30
Waning Gibbous
Jul 8
New
Jul 16
First Quarter
Jul 22
Full
Jul 29
Last Quarter

Hourly Weather History & Observations

Time (CEST) Temp. Heat Index Dew Point Humidity Pressure Visibility Wind Dir Wind Speed Gust Speed Precip Events Conditions
12:00 AM 68.0 °F - 60.8 °F 78% 30.21 in - Variable 1.2 mph - N/A   Clear
12:30 AM 68.0 °F - 60.8 °F 78% 30.21 in - Calm Calm - N/A   Clear
1:00 AM 66.2 °F - 59.0 °F 78% 30.21 in - ESE 1.2 mph - N/A   Clear
1:30 AM 64.4 °F - 59.0 °F 83% 30.21 in - Calm Calm - N/A   Clear
2:00 AM 64 °F - 58 °F 76% 30.22 in 9 mi Calm Calm - -   Clear
2:00 AM 64.4 °F - 59.0 °F 83% 30.21 in - NE 1.2 mph - N/A   Clear
2:30 AM 64.4 °F - 59.0 °F 83% 30.21 in - NNE 1.2 mph - N/A   Clear
3:00 AM 64.4 °F - 59.0 °F 83% 30.18 in - NNE 1.2 mph - N/A   Clear
3:30 AM 62.6 °F - 57.2 °F 82% 30.18 in - NE 1.2 mph - N/A   Clear
4:00 AM 62.6 °F - 57.2 °F 82% 30.18 in - NE 1.2 mph - N/A   Clear
4:30 AM 62.6 °F - 57.2 °F 82% 30.18 in - ENE 2.3 mph - N/A   Clear
5:00 AM 60.8 °F - 57.2 °F 88% 30.18 in - Calm Calm - N/A   Clear
5:30 AM 60.8 °F - 57.2 °F 88% 30.18 in - NE 1.2 mph - N/A   Clear
6:00 AM 60.8 °F - 57.2 °F 88% 30.18 in - Calm Calm - N/A   Clear
6:30 AM 60.8 °F - 57.2 °F 88% 30.18 in - NNE 1.2 mph - N/A   Clear
7:00 AM 60.8 °F - 57.2 °F 88% 30.18 in - Variable 2.3 mph - N/A   Clear
7:30 AM 64.4 °F - 59.0 °F 83% 30.18 in 6.2 mi NNE 3.5 mph - N/A   Partly Cloudy
8:00 AM 66 °F - 58 °F 70% 30.20 in 14 mi Calm Calm - -   Scattered Clouds
8:00 AM 68.0 °F - 60.8 °F 78% 30.18 in 6.2 mi Variable 2.3 mph - N/A   Partly Cloudy
8:30 AM 71.6 °F - 62.6 °F 73% 30.18 in 6.2 mi NE 3.5 mph - N/A   Partly Cloudy
9:00 AM 73.4 °F - 62.6 °F 69% 30.18 in 6.2 mi NE 3.5 mph - N/A   Partly Cloudy
9:30 AM 75.2 °F - 62.6 °F 65% 30.18 in 6.2 mi NE 2.3 mph - N/A   Partly Cloudy
10:00 AM 77.0 °F - 60.8 °F 57% 30.18 in 6.2 mi NNE 1.2 mph - N/A   Partly Cloudy
10:30 AM 78.8 °F - 60.8 °F 54% 30.18 in 6.2 mi North 1.2 mph - N/A   Partly Cloudy
11:00 AM 80.6 °F 80.8 °F 57.2 °F 45% 30.18 in 6.2 mi NNE 4.6 mph - N/A   Partly Cloudy
11:30 AM 80.6 °F 81.8 °F 62.6 °F 54% 30.18 in 6.2 mi SW 9.2 mph - N/A   Partly Cloudy
12:00 PM 78.8 °F - 62.6 °F 57% 30.18 in 6.2 mi SW 10.4 mph - N/A   Partly Cloudy
12:30 PM 78.8 °F - 64.4 °F 61% 30.18 in 6.2 mi SW 12.7 mph - N/A   Partly Cloudy
1:00 PM 78.8 °F - 62.6 °F 57% 30.18 in 6.2 mi SW 12.7 mph - N/A   Partly Cloudy
1:30 PM 78.8 °F - 59.0 °F 51% 30.15 in 6.2 mi SW 15.0 mph - N/A   Partly Cloudy
2:00 PM 81 °F - 58 °F 35% 30.17 in 17 mi SW 18.4 mph - -   Scattered Clouds
2:00 PM 80.6 °F 81.1 °F 59.0 °F 48% 30.15 in 6.2 mi WSW 15.0 mph - N/A   Partly Cloudy
2:30 PM 80.6 °F 81.1 °F 59.0 °F 48% 30.15 in 6.2 mi SW 15.0 mph - N/A   Partly Cloudy
3:00 PM 80.6 °F 81.1 °F 59.0 °F 48% 30.15 in 6.2 mi SW 15.0 mph - N/A   Partly Cloudy
3:30 PM 80.6 °F 81.5 °F 60.8 °F 51% 30.15 in 6.2 mi SW 15.0 mph - N/A   Partly Cloudy
4:00 PM 80.6 °F 80.8 °F 57.2 °F 45% 30.15 in 6.2 mi SW 12.7 mph - N/A   Partly Cloudy
4:30 PM 80.6 °F 80.8 °F 57.2 °F 45% 30.12 in 6.2 mi WSW 11.5 mph - N/A   Partly Cloudy
5:00 PM 80.6 °F 81.1 °F 59.0 °F 48% 30.12 in 6.2 mi SW 12.7 mph - N/A   Partly Cloudy
5:30 PM 78.8 °F - 60.8 °F 54% 30.09 in 6.2 mi WSW 11.5 mph - N/A   Partly Cloudy
6:00 PM 78.8 °F - 59.0 °F 51% 30.09 in 6.2 mi SW 10.4 mph - N/A   Partly Cloudy
6:30 PM 78.8 °F - 59.0 °F 51% 30.09 in 6.2 mi WSW 10.4 mph - N/A   Partly Cloudy
7:00 PM 78.8 °F - 59.0 °F 51% 30.09 in 6.2 mi WSW 9.2 mph - N/A   Partly Cloudy
7:30 PM 78.8 °F - 60.8 °F 54% 30.09 in 6.2 mi WSW 6.9 mph - N/A   Partly Cloudy
8:00 PM 77.0 °F - 60.8 °F 57% 30.06 in 6.2 mi WSW 8.1 mph - N/A   Partly Cloudy
8:30 PM 77.0 °F - 60.8 °F 57% 30.06 in 6.2 mi WSW 8.1 mph - N/A   Partly Cloudy
9:00 PM 75.2 °F - 60.8 °F 61% 30.06 in 6.2 mi WSW 6.9 mph - N/A   Partly Cloudy
9:30 PM 75.2 °F - 62.6 °F 65% 30.06 in 6.2 mi WSW 5.8 mph - N/A   Partly Cloudy
10:00 PM 73.4 °F - 62.6 °F 69% 30.09 in 6.2 mi NNE 8.1 mph - N/A   Partly Cloudy
10:30 PM 73.4 °F - 60.8 °F 65% 30.09 in 6.2 mi ENE 5.8 mph - N/A   Scattered Clouds
11:00 PM 71.6 °F - 59.0 °F 64% 30.09 in 6.2 mi ENE 6.9 mph - N/A   Scattered Clouds
11:30 PM 69.8 °F - 57.2 °F 64% 30.09 in 6.2 mi ENE 3.5 mph - N/A   Partly Cloudy